SKW4703 KDEN-KAVL

Flight info

Callsign SKW4703
Flight time 2h 26m
Altitude 37000
Route EXTAN7 SHAYK SLN BUM CNG VXV SOT
Aircraft E75L/M-SDE3GILORVW/S

Departure

Time 2026-04-25 22:09
Airport Denver International Airport (KDEN)

Arrival

Time 2026-04-26 00:36
Airport Asheville Regional Airport (KAVL)
Time Latitude Longitude Altitude Speed Heading
2026-04-25 21:49 39.85932 -104.68053 5440 ft 0 kts 180°
2026-04-25 22:00 39.85942 -104.68053 5440 ft 2 kts 180°
2026-04-25 22:00 39.85957 -104.68053 5440 ft 2 kts 180°
2026-04-25 22:00 39.85972 -104.68053 5440 ft 2 kts 180°
2026-04-25 22:01 39.85987 -104.68053 5440 ft 2 kts 180°
2026-04-25 22:01 39.86002 -104.68053 5440 ft 2 kts 180°
2026-04-25 22:01 39.86017 -104.68053 5440 ft 2 kts 180°
2026-04-25 22:01 39.86023 -104.68053 5440 ft 0 kts 180°
2026-04-25 22:03 39.86019 -104.68050 5440 ft 1 kts 136°
2026-04-25 22:03 39.86028 -104.68017 5440 ft 7 kts 44°
2026-04-25 22:03 39.86079 -104.67955 5440 ft 13 kts 43°
2026-04-25 22:04 39.86132 -104.67832 5440 ft 18 kts 82°
2026-04-25 22:04 39.86134 -104.67643 5440 ft 23 kts 89°
2026-04-25 22:04 39.86132 -104.67419 5440 ft 25 kts 90°
2026-04-25 22:04 39.86131 -104.67186 5440 ft 25 kts 90°
2026-04-25 22:05 39.86130 -104.67038 5440 ft 6 kts 90°
2026-04-25 22:05 39.86129 -104.66929 5440 ft 17 kts 90°
2026-04-25 22:05 39.86128 -104.66734 5440 ft 23 kts 90°
2026-04-25 22:05 39.86111 -104.66526 5440 ft 22 kts 101°
2026-04-25 22:06 39.86106 -104.66323 5440 ft 19 kts 90°
2026-04-25 22:06 39.86136 -104.66235 5440 ft 10 kts 19°
2026-04-25 22:06 39.86224 -104.66228 5440 ft 16 kts
2026-04-25 22:06 39.86367 -104.66226 5440 ft 24 kts
2026-04-25 22:07 39.86542 -104.66225 5440 ft 27 kts
2026-04-25 22:07 39.86675 -104.66224 5440 ft 29 kts
2026-04-25 22:07 39.86948 -104.66220 5440 ft 29 kts
2026-04-25 22:07 39.87151 -104.66219 5440 ft 29 kts
2026-04-25 22:08 39.87352 -104.66215 5440 ft 28 kts 360°
2026-04-25 22:08 39.87553 -104.66213 5440 ft 28 kts
2026-04-25 22:08 39.87729 -104.66209 5440 ft 15 kts 19°
2026-04-25 22:08 39.87755 -104.66120 5439 ft 13 kts 91°
2026-04-25 22:09 39.87753 -104.65731 5440 ft 76 kts 91°
2026-04-25 22:09 39.87746 -104.64780 5440 ft 133 kts 90°
2026-04-25 22:09 39.87737 -104.63371 5513 ft 172 kts 89°
2026-04-25 22:09 39.87737 -104.61792 6058 ft 180 kts 90°
2026-04-25 22:10 39.87742 -104.60145 6674 ft 187 kts 89°
2026-04-25 22:10 39.87555 -104.58426 7099 ft 200 kts 115°
2026-04-25 22:10 39.86739 -104.56937 7625 ft 207 kts 132°
2026-04-25 22:10 39.85959 -104.55366 8190 ft 211 kts 111°
2026-04-25 22:11 39.85546 -104.53520 8670 ft 221 kts 101°
2026-04-25 22:11 39.85288 -104.51427 8838 ft 247 kts 101°
2026-04-25 22:11 39.84985 -104.49103 8898 ft 277 kts 101°
2026-04-25 22:11 39.84633 -104.46526 9242 ft 294 kts 101°
2026-04-25 22:12 39.84269 -104.43924 9873 ft 299 kts 102°
2026-04-25 22:12 39.83890 -104.41249 10567 ft 301 kts 102°
2026-04-25 22:12 39.83508 -104.38568 11130 ft 308 kts 102°
2026-04-25 22:12 39.83380 -104.37682 11282 ft 311 kts 102°
2026-04-25 22:13 39.82702 -104.32948 12011 ft 329 kts 103°
2026-04-25 22:13 39.82274 -104.29974 12478 ft 337 kts 103°
2026-04-25 22:13 39.81841 -104.26966 13019 ft 343 kts 102°
2026-04-25 22:13 39.81403 -104.23928 13606 ft 347 kts 103°
2026-04-25 22:14 39.80958 -104.20853 14172 ft 351 kts 103°
2026-04-25 22:14 39.80504 -104.17722 14766 ft 354 kts 102°
2026-04-25 22:14 39.80047 -104.14573 15276 ft 359 kts 103°
2026-04-25 22:14 39.79583 -104.11389 15832 ft 363 kts 102°
2026-04-25 22:15 39.79110 -104.08141 16370 ft 368 kts 103°
2026-04-25 22:15 39.78629 -104.04852 16859 ft 372 kts 103°
2026-04-25 22:15 39.78148 -104.01569 17375 ft 376 kts 103°
2026-04-25 22:16 39.77161 -103.94849 18330 ft 385 kts 103°
2026-04-25 22:16 39.76656 -103.91421 18806 ft 390 kts 102°
2026-04-25 22:16 39.76140 -103.87927 19334 ft 393 kts 103°
2026-04-25 22:16 39.75625 -103.84446 19797 ft 398 kts 103°
2026-04-25 22:17 39.75102 -103.80919 20302 ft 400 kts 103°
2026-04-25 22:17 39.74572 -103.77355 20833 ft 403 kts 103°
2026-04-25 22:17 39.74149 -103.73729 21277 ft 409 kts 97°
2026-04-25 22:17 39.73881 -103.70074 21717 ft 413 kts 97°
2026-04-25 22:18 39.73597 -103.66373 22166 ft 416 kts 97°
2026-04-25 22:18 39.73304 -103.62630 22602 ft 419 kts 97°
2026-04-25 22:18 39.73004 -103.58834 23035 ft 423 kts 97°
2026-04-25 22:18 39.72702 -103.55022 23479 ft 426 kts 97°
2026-04-25 22:19 39.72398 -103.51215 23880 ft 430 kts 97°
2026-04-25 22:19 39.72089 -103.47350 24266 ft 434 kts 97°
2026-04-25 22:19 39.71774 -103.43440 24636 ft 439 kts 97°
2026-04-25 22:19 39.71456 -103.39499 25001 ft 443 kts 97°
2026-04-25 22:20 39.71132 -103.35504 25392 ft 446 kts 97°
2026-04-25 22:20 39.70806 -103.31505 25739 ft 450 kts 97°
2026-04-25 22:20 39.70479 -103.27501 26063 ft 454 kts 97°
2026-04-25 22:20 39.70142 -103.23392 26422 ft 457 kts 97°
2026-04-25 22:21 39.69802 -103.19281 26732 ft 461 kts 97°
2026-04-25 22:21 39.69461 -103.15163 27049 ft 465 kts 97°
2026-04-25 22:21 39.69113 -103.10983 27395 ft 467 kts 97°
2026-04-25 22:21 39.68762 -103.06786 27712 ft 471 kts 97°
2026-04-25 22:22 39.68411 -103.02608 28042 ft 473 kts 97°
2026-04-25 22:22 39.68053 -102.98361 28387 ft 476 kts 97°
2026-04-25 22:22 39.67690 -102.94074 28689 ft 479 kts 97°
2026-04-25 22:22 39.67323 -102.89761 28978 ft 483 kts 97°
2026-04-25 22:23 39.66955 -102.85449 29294 ft 485 kts 97°
2026-04-25 22:23 39.66581 -102.81102 29593 ft 488 kts 97°
2026-04-25 22:23 39.66204 -102.76728 29886 ft 491 kts 97°
2026-04-25 22:23 39.65822 -102.72314 30204 ft 494 kts 97°
2026-04-25 22:24 39.65437 -102.67898 30520 ft 496 kts 97°
2026-04-25 22:24 39.65046 -102.63413 30827 ft 499 kts 97°
2026-04-25 22:24 39.64657 -102.58991 31105 ft 502 kts 97°
2026-04-25 22:24 39.64262 -102.54513 31390 ft 504 kts 97°
2026-04-25 22:25 39.63862 -102.49994 31678 ft 507 kts 97°
2026-04-25 22:25 39.63457 -102.45444 32023 ft 508 kts 97°
2026-04-25 22:25 39.63053 -102.40923 32409 ft 508 kts 97°
2026-04-25 22:25 39.62642 -102.36342 32836 ft 507 kts 97°
2026-04-25 22:26 39.62235 -102.31834 33246 ft 506 kts 98°
2026-04-25 22:26 39.61827 -102.27326 33623 ft 505 kts 98°
2026-04-25 22:26 39.61420 -102.22852 33988 ft 504 kts 98°
2026-04-25 22:26 39.61007 -102.18343 34314 ft 505 kts 98°
2026-04-25 22:27 39.60596 -102.13851 34603 ft 504 kts 98°
2026-04-25 22:27 39.60184 -102.09390 34893 ft 504 kts 98°
2026-04-25 22:27 39.59769 -102.04894 35197 ft 503 kts 98°
2026-04-25 22:27 39.59356 -102.00412 35492 ft 502 kts 97°
2026-04-25 22:28 39.59007 -101.95908 35762 ft 502 kts 97°
2026-04-25 22:28 39.58656 -101.91447 36050 ft 500 kts 97°
2026-04-25 22:28 39.58301 -101.86961 36354 ft 499 kts 96°
2026-04-25 22:28 39.57950 -101.82554 36683 ft 499 kts 97°
2026-04-25 22:29 39.57593 -101.78094 36913 ft 492 kts 97°
2026-04-25 22:29 39.56874 -101.69177 36934 ft 505 kts 96°
2026-04-25 22:30 39.56130 -101.60041 36927 ft 517 kts 96°
2026-04-25 22:30 39.55749 -101.55389 36934 ft 522 kts 96°
2026-04-25 22:30 39.55107 -101.47610 36924 ft 529 kts 96°
2026-04-25 22:31 39.53981 -101.36642 36931 ft 525 kts 103°
2026-04-25 22:31 39.52571 -101.27442 36915 ft 524 kts 102°
2026-04-25 22:32 39.51202 -101.18196 36911 ft 525 kts 103°
2026-04-25 22:32 39.49819 -101.08901 36923 ft 527 kts 103°
2026-04-25 22:33 39.48438 -100.99664 36935 ft 524 kts 103°
2026-04-25 22:33 39.47047 -100.90423 36928 ft 525 kts 102°
2026-04-25 22:34 39.45646 -100.81165 36913 ft 525 kts 102°
2026-04-25 22:34 39.44243 -100.71942 36920 ft 523 kts 102°
2026-04-25 22:35 39.42840 -100.62769 36912 ft 522 kts 102°
2026-04-25 22:35 39.41425 -100.53577 36908 ft 522 kts 102°
2026-04-25 22:36 39.40002 -100.44375 36909 ft 523 kts 102°
2026-04-25 22:36 39.38576 -100.35207 36914 ft 522 kts 102°
2026-04-25 22:37 39.37141 -100.26025 36898 ft 522 kts 103°
2026-04-25 22:37 39.35696 -100.16840 36894 ft 521 kts 103°
2026-04-25 22:38 39.34257 -100.07743 36898 ft 521 kts 102°
2026-04-25 22:38 39.32801 -99.98574 36904 ft 521 kts 103°
2026-04-25 22:39 39.31342 -99.89445 36900 ft 520 kts 103°
2026-04-25 22:39 39.29881 -99.80347 36898 ft 520 kts 102°
2026-04-25 22:40 39.28403 -99.71196 36896 ft 519 kts 103°
2026-04-25 22:40 39.26928 -99.62109 36892 ft 520 kts 103°
2026-04-25 22:41 39.25441 -99.52999 36885 ft 521 kts 103°
2026-04-25 22:41 39.23950 -99.43907 36874 ft 519 kts 102°
2026-04-25 22:42 39.22456 -99.34840 36878 ft 519 kts 103°
2026-04-25 22:42 39.20954 -99.25784 36862 ft 518 kts 103°
2026-04-25 22:43 39.19450 -99.16751 36857 ft 518 kts 103°
2026-04-25 22:43 39.17936 -99.07703 36850 ft 517 kts 103°
2026-04-25 22:44 39.16421 -98.98702 36847 ft 516 kts 103°
2026-04-25 22:44 39.14895 -98.89675 36842 ft 518 kts 103°
2026-04-25 22:45 39.13363 -98.80659 36837 ft 518 kts 103°
2026-04-25 22:45 39.11822 -98.71637 36829 ft 517 kts 103°
2026-04-25 22:46 39.10270 -98.62595 36830 ft 518 kts 103°
2026-04-25 22:46 39.08716 -98.53584 36834 ft 516 kts 103°
2026-04-25 22:47 39.07149 -98.44545 36830 ft 520 kts 103°
2026-04-25 22:47 39.05585 -98.35561 36830 ft 518 kts 103°
2026-04-25 22:48 39.04013 -98.26583 36832 ft 517 kts 103°
2026-04-25 22:48 39.02429 -98.17576 36815 ft 518 kts 103°
2026-04-25 22:49 39.00836 -98.08559 36828 ft 519 kts 103°
2026-04-25 22:49 38.99238 -97.99560 36823 ft 518 kts 103°
2026-04-25 22:50 38.97638 -97.90582 36824 ft 519 kts 103°
2026-04-25 22:50 38.96029 -97.81618 36826 ft 518 kts 103°
2026-04-25 22:51 38.94401 -97.72575 36825 ft 520 kts 103°
2026-04-25 22:51 38.92779 -97.63610 36823 ft 520 kts 103°
2026-04-25 22:52 38.91053 -97.54603 36823 ft 519 kts 104°
2026-04-25 22:52 38.89596 -97.47107 36814 ft 520 kts 104°
2026-04-25 22:53 38.87563 -97.36691 36821 ft 518 kts 104°
2026-04-25 22:53 38.85812 -97.27773 36804 ft 520 kts 104°
2026-04-25 22:54 38.84041 -97.18780 36819 ft 519 kts 104°
2026-04-25 22:54 38.82269 -97.09826 36822 ft 519 kts 104°
2026-04-25 22:55 38.80493 -97.00891 36834 ft 521 kts 105°
2026-04-25 22:55 38.78715 -96.91979 36844 ft 519 kts 104°
2026-04-25 22:56 38.76929 -96.83070 36840 ft 518 kts 105°
2026-04-25 22:56 38.75131 -96.74141 36840 ft 519 kts 104°
2026-04-25 22:57 38.73331 -96.65237 36843 ft 517 kts 105°
2026-04-25 22:57 38.71533 -96.56382 36852 ft 517 kts 105°
2026-04-25 22:58 38.69718 -96.47480 36845 ft 517 kts 104°
2026-04-25 22:58 38.67913 -96.38663 36834 ft 515 kts 105°
2026-04-25 22:59 38.66094 -96.29820 36831 ft 516 kts 105°
2026-04-25 22:59 38.64270 -96.20984 36838 ft 516 kts 105°
2026-04-25 23:00 38.62442 -96.12167 36834 ft 515 kts 106°
2026-04-25 23:00 38.60605 -96.03346 36818 ft 515 kts 105°
2026-04-25 23:01 38.58767 -95.94552 36834 ft 515 kts 105°
2026-04-25 23:01 38.56926 -95.85780 36830 ft 515 kts 105°
2026-04-25 23:02 38.55079 -95.77015 36829 ft 515 kts 106°
2026-04-25 23:02 38.53210 -95.68180 36836 ft 515 kts 106°
2026-04-25 23:03 38.51350 -95.59427 36834 ft 513 kts 105°
2026-04-25 23:03 38.49472 -95.50625 36834 ft 515 kts 105°
2026-04-25 23:04 38.47908 -95.43320 36842 ft 515 kts 105°
2026-04-25 23:04 38.45708 -95.33085 36835 ft 514 kts 107°
2026-04-25 23:05 38.43808 -95.24285 36839 ft 515 kts 106°
2026-04-25 23:05 38.41912 -95.15537 36839 ft 514 kts 106°
2026-04-25 23:06 38.40005 -95.06776 36852 ft 515 kts 106°
2026-04-25 23:06 38.38097 -94.98043 36859 ft 515 kts 106°
2026-04-25 23:07 38.36173 -94.89271 36858 ft 516 kts 106°
2026-04-25 23:07 38.34230 -94.80448 36858 ft 514 kts 106°
2026-04-25 23:08 38.32301 -94.71717 36856 ft 515 kts 106°
2026-04-25 23:08 38.30360 -94.62975 36853 ft 516 kts 106°
2026-04-25 23:09 38.28400 -94.54178 36864 ft 515 kts 106°
2026-04-25 23:09 38.26529 -94.45435 36862 ft 514 kts 104°
2026-04-25 23:10 38.24806 -94.36636 36856 ft 514 kts 104°
2026-04-25 23:10 38.23070 -94.27853 36853 ft 515 kts 105°
2026-04-25 23:11 38.21325 -94.19064 36864 ft 515 kts 104°
2026-04-25 23:11 38.19574 -94.10284 36850 ft 514 kts 105°
2026-04-25 23:12 38.17820 -94.01521 36858 ft 514 kts 105°
2026-04-25 23:12 38.16054 -93.92740 36854 ft 514 kts 104°
2026-04-25 23:13 38.14282 -93.83970 36851 ft 512 kts 104°
2026-04-25 23:13 38.12505 -93.75201 36858 ft 512 kts 104°
2026-04-25 23:14 38.10740 -93.66536 36854 ft 513 kts 104°
2026-04-25 23:14 38.08953 -93.57795 36872 ft 510 kts 104°
2026-04-25 23:15 38.07167 -93.49092 36867 ft 512 kts 104°
2026-04-25 23:15 38.05371 -93.40382 36880 ft 511 kts 104°
2026-04-25 23:16 38.03576 -93.31705 36872 ft 509 kts 105°
2026-04-25 23:16 38.01775 -93.23042 36868 ft 511 kts 105°
2026-04-25 23:17 37.99968 -93.14378 36867 ft 511 kts 105°
2026-04-25 23:17 37.98147 -93.05687 36880 ft 510 kts 105°
2026-04-25 23:18 37.96326 -92.97030 36883 ft 509 kts 105°
2026-04-25 23:18 37.94505 -92.88399 36907 ft 511 kts 105°
2026-04-25 23:19 37.92666 -92.79726 36881 ft 510 kts 105°
2026-04-25 23:19 37.90821 -92.71055 36900 ft 510 kts 105°
2026-04-25 23:20 37.88985 -92.62460 36899 ft 510 kts 105°
2026-04-25 23:20 37.87131 -92.53820 36887 ft 509 kts 105°
2026-04-25 23:21 37.85276 -92.45205 36895 ft 509 kts 105°
2026-04-25 23:21 37.83416 -92.36601 36888 ft 508 kts 105°
2026-04-25 23:22 37.81553 -92.28017 36879 ft 508 kts 106°
2026-04-25 23:23 37.78736 -92.15097 36902 ft 510 kts 106°
2026-04-25 23:23 37.76857 -92.06519 36887 ft 509 kts 106°
2026-04-25 23:24 37.74965 -91.97918 36895 ft 509 kts 106°
2026-04-25 23:24 37.73080 -91.89384 36902 ft 508 kts 106°
2026-04-25 23:25 37.71172 -91.80769 36912 ft 509 kts 106°
2026-04-25 23:25 37.69267 -91.72209 36917 ft 507 kts 106°
2026-04-25 23:26 37.67366 -91.63692 36916 ft 507 kts 106°
2026-04-25 23:26 37.65459 -91.55182 36910 ft 506 kts 106°
2026-04-25 23:27 37.63533 -91.46624 36926 ft 506 kts 106°
2026-04-25 23:27 37.61623 -91.38165 36917 ft 505 kts 106°
2026-04-25 23:28 37.59686 -91.29617 36909 ft 506 kts 106°
2026-04-25 23:28 37.57759 -91.21143 36910 ft 505 kts 107°
2026-04-25 23:29 37.55818 -91.12643 36907 ft 505 kts 106°
2026-04-25 23:29 37.53890 -91.04227 36911 ft 506 kts 107°
2026-04-25 23:30 37.51939 -90.95745 36913 ft 505 kts 107°
2026-04-25 23:30 37.49986 -90.87282 36916 ft 505 kts 106°
2026-04-25 23:31 37.48023 -90.78805 36914 ft 505 kts 107°
2026-04-25 23:31 37.46051 -90.70322 36914 ft 506 kts 106°
2026-04-25 23:32 37.44084 -90.61893 36915 ft 505 kts 107°
2026-04-25 23:32 37.42094 -90.53396 36911 ft 505 kts 106°
2026-04-25 23:33 37.40121 -90.44997 36912 ft 505 kts 106°
2026-04-25 23:33 37.38123 -90.36523 36902 ft 506 kts 106°
2026-04-25 23:34 37.36131 -90.28104 36902 ft 504 kts 107°
2026-04-25 23:34 37.34145 -90.19743 36895 ft 504 kts 107°
2026-04-25 23:35 37.32136 -90.11313 36900 ft 504 kts 107°
2026-04-25 23:35 37.30132 -90.02934 36907 ft 503 kts 107°
2026-04-25 23:36 37.28114 -89.94525 36903 ft 504 kts 107°
2026-04-25 23:36 37.26096 -89.86143 36899 ft 503 kts 107°
2026-04-25 23:37 37.24077 -89.77789 36905 ft 505 kts 107°
2026-04-25 23:37 37.22029 -89.69343 36904 ft 505 kts 107°
2026-04-25 23:38 37.19980 -89.60920 36904 ft 505 kts 107°
2026-04-25 23:38 37.17931 -89.52534 36895 ft 506 kts 107°
2026-04-25 23:39 37.15871 -89.44122 36896 ft 506 kts 107°
2026-04-25 23:39 37.13802 -89.35705 36903 ft 506 kts 107°
2026-04-25 23:40 37.11742 -89.27358 36906 ft 505 kts 108°
2026-04-25 23:40 37.09665 -89.18964 36897 ft 505 kts 108°
2026-04-25 23:41 37.07592 -89.10618 36899 ft 506 kts 108°
2026-04-25 23:41 37.05504 -89.02239 36898 ft 505 kts 108°
2026-04-25 23:42 37.03408 -88.93857 36896 ft 506 kts 108°
2026-04-25 23:42 37.01306 -88.85478 36905 ft 506 kts 108°
2026-04-25 23:43 36.99511 -88.77005 36904 ft 506 kts 104°
2026-04-25 23:43 36.97820 -88.68536 36901 ft 506 kts 104°
2026-04-25 23:44 36.96107 -88.60035 36896 ft 505 kts 104°
2026-04-25 23:44 36.94393 -88.51562 36893 ft 505 kts 104°
2026-04-25 23:45 36.92676 -88.43111 36889 ft 505 kts 104°
2026-04-25 23:45 36.90939 -88.34592 36884 ft 505 kts 105°
2026-04-25 23:46 36.89210 -88.26150 36871 ft 503 kts 105°
2026-04-25 23:46 36.87480 -88.17731 36870 ft 503 kts 105°
2026-04-25 23:47 36.85748 -88.09338 36870 ft 502 kts 105°
2026-04-25 23:47 36.83995 -88.00877 36870 ft 503 kts 105°
2026-04-25 23:48 36.82253 -87.92497 36878 ft 502 kts 105°
2026-04-25 23:48 36.80504 -87.84119 36871 ft 501 kts 105°
2026-04-25 23:49 36.78738 -87.75689 36880 ft 501 kts 105°
2026-04-25 23:49 36.76969 -87.67282 36883 ft 502 kts 105°
2026-04-25 23:50 36.75205 -87.58925 36886 ft 501 kts 105°
2026-04-25 23:50 36.73438 -87.50585 36879 ft 500 kts 105°
2026-04-25 23:51 36.71653 -87.42196 36904 ft 501 kts 105°
2026-04-25 23:51 36.69875 -87.33868 36894 ft 500 kts 106°
2026-04-25 23:52 36.68080 -87.25493 36890 ft 500 kts 106°
2026-04-25 23:52 36.66287 -87.17160 36882 ft 500 kts 106°
2026-04-25 23:53 36.64487 -87.08823 36881 ft 499 kts 106°
2026-04-25 23:53 36.62688 -87.00524 36902 ft 499 kts 106°
2026-04-25 23:54 36.60887 -86.92245 36890 ft 499 kts 106°
2026-04-25 23:54 36.59074 -86.83938 36887 ft 498 kts 106°
2026-04-25 23:55 36.57265 -86.75679 36890 ft 498 kts 106°
2026-04-25 23:55 36.55448 -86.67416 36890 ft 497 kts 106°
2026-04-25 23:56 36.53618 -86.59128 36891 ft 497 kts 106°
2026-04-25 23:56 36.51801 -86.50919 36897 ft 496 kts 106°
2026-04-25 23:57 36.49968 -86.42677 36897 ft 495 kts 106°
2026-04-25 23:57 36.48138 -86.34469 36897 ft 495 kts 107°
2026-04-25 23:58 36.46304 -86.26277 36884 ft 495 kts 107°
2026-04-25 23:58 36.44454 -86.18044 36880 ft 495 kts 107°
2026-04-25 23:59 36.42614 -86.09880 36877 ft 494 kts 107°
2026-04-25 23:59 36.40766 -86.01712 36880 ft 494 kts 107°
2026-04-26 00:00 36.38912 -85.93544 36875 ft 493 kts 107°
2026-04-26 00:00 36.37054 -85.85387 36875 ft 492 kts 107°
2026-04-26 00:01 36.35187 -85.77219 36877 ft 492 kts 107°
2026-04-26 00:01 36.33323 -85.69093 36883 ft 491 kts 108°
2026-04-26 00:02 36.31459 -85.60998 36879 ft 490 kts 108°
2026-04-26 00:02 36.29590 -85.52904 36885 ft 491 kts 107°
2026-04-26 00:03 36.27708 -85.44782 36897 ft 491 kts 108°
2026-04-26 00:03 36.25827 -85.36692 36907 ft 491 kts 108°
2026-04-26 00:04 36.23932 -85.28569 36906 ft 491 kts 108°
2026-04-26 00:04 36.22042 -85.20499 36905 ft 490 kts 108°
2026-04-26 00:05 36.20151 -85.12447 36898 ft 485 kts 108°
2026-04-26 00:05 36.18280 -85.04510 36917 ft 483 kts 109°
2026-04-26 00:05 36.17335 -85.00506 36650 ft 486 kts 109°
2026-04-26 00:06 36.16396 -84.96540 36121 ft 483 kts 109°
2026-04-26 00:06 36.15461 -84.92594 35634 ft 482 kts 109°
2026-04-26 00:06 36.14521 -84.88634 35117 ft 483 kts 109°
2026-04-26 00:06 36.13570 -84.84634 34571 ft 482 kts 109°
2026-04-26 00:07 36.12632 -84.80698 34035 ft 481 kts 109°
2026-04-26 00:07 36.11692 -84.76760 33492 ft 481 kts 109°
2026-04-26 00:07 36.10742 -84.72784 32947 ft 485 kts 109°
2026-04-26 00:07 36.09785 -84.68785 32414 ft 490 kts 108°
2026-04-26 00:08 36.08823 -84.64773 31867 ft 490 kts 108°
2026-04-26 00:08 36.07858 -84.60748 31324 ft 488 kts 108°
2026-04-26 00:08 36.06895 -84.56749 30788 ft 484 kts 108°
2026-04-26 00:08 36.05935 -84.52763 30254 ft 483 kts 108°
2026-04-26 00:09 36.04989 -84.48843 29722 ft 480 kts 108°
2026-04-26 00:09 36.04046 -84.44937 29193 ft 476 kts 108°
2026-04-26 00:09 36.03104 -84.41049 28672 ft 471 kts 108°
2026-04-26 00:09 36.02168 -84.37188 28153 ft 467 kts 108°
2026-04-26 00:10 36.01253 -84.33418 27641 ft 461 kts 108°
2026-04-26 00:10 36.00329 -84.29619 27131 ft 456 kts 108°
2026-04-26 00:10 35.99423 -84.25899 26630 ft 454 kts 108°
2026-04-26 00:10 35.98527 -84.22228 26139 ft 450 kts 108°
2026-04-26 00:11 35.97627 -84.18541 25647 ft 447 kts 108°
2026-04-26 00:11 35.96733 -84.14887 25158 ft 444 kts 108°
2026-04-26 00:11 35.95841 -84.11247 24672 ft 441 kts 108°
2026-04-26 00:11 35.94968 -84.07686 24192 ft 437 kts 108°
2026-04-26 00:12 35.94087 -84.04102 23711 ft 435 kts 108°
2026-04-26 00:12 35.93217 -84.00566 23239 ft 432 kts 108°
2026-04-26 00:12 35.92346 -83.97031 22766 ft 429 kts 108°
2026-04-26 00:12 35.91482 -83.93530 22297 ft 424 kts 108°
2026-04-26 00:13 35.90630 -83.90081 21832 ft 421 kts 108°
2026-04-26 00:13 35.90042 -83.86591 21383 ft 418 kts 98°
2026-04-26 00:13 35.89612 -83.83057 20915 ft 416 kts 99°
2026-04-26 00:13 35.89157 -83.79552 20458 ft 411 kts 99°
2026-04-26 00:14 35.88698 -83.76091 20008 ft 410 kts 99°
2026-04-26 00:14 35.88241 -83.72670 19559 ft 406 kts 99°
2026-04-26 00:14 35.87783 -83.69250 19114 ft 402 kts 99°
2026-04-26 00:14 35.87331 -83.65887 18676 ft 400 kts 99°
2026-04-26 00:15 35.86874 -83.62501 18245 ft 397 kts 99°
2026-04-26 00:15 35.86428 -83.59196 17849 ft 395 kts 99°
2026-04-26 00:15 35.85978 -83.55869 17419 ft 393 kts 99°
2026-04-26 00:15 35.85531 -83.52576 16989 ft 390 kts 99°
2026-04-26 00:16 35.85087 -83.49308 16562 ft 385 kts 99°
2026-04-26 00:16 35.84647 -83.46079 16140 ft 382 kts 99°
2026-04-26 00:16 35.84212 -83.42890 15724 ft 378 kts 98°
2026-04-26 00:16 35.83777 -83.39711 15319 ft 376 kts 98°
2026-04-26 00:17 35.83342 -83.36538 14895 ft 372 kts 98°
2026-04-26 00:17 35.82915 -83.33424 14484 ft 369 kts 98°
2026-04-26 00:17 35.82494 -83.30364 14081 ft 365 kts 98°
2026-04-26 00:17 35.82070 -83.27291 13683 ft 361 kts 98°
2026-04-26 00:18 35.81649 -83.24239 13286 ft 359 kts 98°
2026-04-26 00:18 35.81234 -83.21243 12894 ft 355 kts 98°
2026-04-26 00:18 35.80824 -83.18281 12507 ft 352 kts 98°
2026-04-26 00:18 35.80411 -83.15309 12113 ft 349 kts 98°
2026-04-26 00:19 35.80002 -83.12367 11731 ft 346 kts 98°
2026-04-26 00:19 35.79601 -83.09493 11349 ft 338 kts 97°
2026-04-26 00:19 35.79201 -83.06716 11018 ft 328 kts 102°
2026-04-26 00:19 35.78182 -83.04239 10995 ft 326 kts 126°
2026-04-26 00:20 35.76762 -83.02058 10979 ft 328 kts 128°
2026-04-26 00:20 35.75288 -82.99877 10975 ft 330 kts 129°
2026-04-26 00:20 35.73811 -82.97719 10971 ft 330 kts 129°
2026-04-26 00:20 35.72343 -82.95583 10970 ft 330 kts 129°
2026-04-26 00:21 35.70867 -82.93445 10972 ft 330 kts 129°
2026-04-26 00:21 35.69381 -82.91294 10973 ft 330 kts 129°
2026-04-26 00:21 35.67898 -82.89149 10900 ft 318 kts 129°
2026-04-26 00:21 35.66488 -82.87112 10442 ft 313 kts 129°
2026-04-26 00:22 35.65093 -82.85095 9934 ft 309 kts 129°
2026-04-26 00:22 35.63703 -82.83090 9461 ft 304 kts 129°
2026-04-26 00:22 35.62317 -82.81187 8982 ft 301 kts 139°
2026-04-26 00:22 35.60485 -82.80003 8484 ft 299 kts 159°
2026-04-26 00:23 35.58528 -82.79147 8060 ft 300 kts 160°
2026-04-26 00:23 35.56673 -82.78022 8005 ft 299 kts 148°
2026-04-26 00:23 35.54891 -82.76702 7978 ft 297 kts 147°
2026-04-26 00:23 35.53140 -82.75415 7992 ft 295 kts 148°
2026-04-26 00:24 35.51371 -82.74106 7995 ft 294 kts 148°
2026-04-26 00:24 35.49625 -82.72823 7999 ft 293 kts 148°
2026-04-26 00:24 35.47849 -82.71504 7986 ft 300 kts 147°
2026-04-26 00:24 35.46091 -82.70191 7987 ft 295 kts 148°
2026-04-26 00:25 35.44354 -82.68893 7994 ft 294 kts 148°
2026-04-26 00:25 35.42581 -82.67574 7992 ft 294 kts 148°
2026-04-26 00:25 35.40708 -82.66548 7995 ft 295 kts 160°
2026-04-26 00:25 35.38774 -82.65698 7996 ft 295 kts 160°
2026-04-26 00:26 35.36855 -82.64845 7988 ft 292 kts 160°
2026-04-26 00:26 35.34985 -82.64016 7678 ft 284 kts 160°
2026-04-26 00:26 35.33120 -82.63187 7134 ft 285 kts 160°
2026-04-26 00:26 35.31301 -82.62373 7022 ft 268 kts 160°
2026-04-26 00:27 35.29614 -82.61612 6971 ft 252 kts 160°
2026-04-26 00:27 35.27992 -82.60887 6761 ft 244 kts 160°
2026-04-26 00:27 35.26412 -82.60181 6446 ft 242 kts 160°
2026-04-26 00:27 35.24816 -82.59471 6080 ft 244 kts 160°
2026-04-26 00:28 35.23223 -82.58773 6005 ft 244 kts 160°
2026-04-26 00:28 35.21629 -82.58078 5986 ft 242 kts 160°
2026-04-26 00:28 35.20034 -82.57373 5982 ft 243 kts 160°
2026-04-26 00:28 35.18631 -82.56287 5991 ft 241 kts 125°
2026-04-26 00:29 35.18079 -82.54406 6015 ft 238 kts 85°
2026-04-26 00:29 35.18362 -82.52447 6007 ft 236 kts 73°
2026-04-26 00:29 35.18771 -82.50474 5980 ft 239 kts 73°
2026-04-26 00:29 35.19175 -82.48556 5856 ft 230 kts 72°
2026-04-26 00:30 35.19909 -82.46893 5500 ft 223 kts 36°
2026-04-26 00:30 35.21270 -82.46107 5224 ft 213 kts 13°
2026-04-26 00:30 35.22648 -82.45648 5204 ft 194 kts
2026-04-26 00:30 35.23945 -82.45766 5015 ft 190 kts 345°
2026-04-26 00:31 35.25241 -82.46171 4993 ft 190 kts 341°
2026-04-26 00:31 35.26499 -82.46650 4984 ft 189 kts 340°
2026-04-26 00:31 35.27743 -82.47168 4981 ft 189 kts 339°
2026-04-26 00:31 35.28968 -82.47698 4876 ft 182 kts 339°
2026-04-26 00:32 35.30103 -82.48197 4648 ft 166 kts 339°
2026-04-26 00:32 35.31145 -82.48658 4504 ft 152 kts 339°
2026-04-26 00:32 35.32979 -82.49473 4053 ft 131 kts 340°
2026-04-26 00:33 35.33841 -82.49857 3893 ft 132 kts 340°
2026-04-26 00:33 35.34705 -82.50240 3735 ft 134 kts 340°
2026-04-26 00:33 35.35592 -82.50635 3557 ft 135 kts 340°
2026-04-26 00:33 35.36477 -82.51028 3375 ft 134 kts 340°
2026-04-26 00:34 35.37348 -82.51417 3196 ft 134 kts 340°
2026-04-26 00:34 35.38230 -82.51809 3021 ft 133 kts 340°
2026-04-26 00:34 35.39107 -82.52200 2842 ft 133 kts 340°
2026-04-26 00:34 35.39972 -82.52585 2668 ft 133 kts 340°
2026-04-26 00:35 35.40846 -82.52975 2493 ft 132 kts 340°
2026-04-26 00:35 35.41717 -82.53355 2317 ft 132 kts 341°
2026-04-26 00:35 35.42580 -82.53740 2147 ft 132 kts 339°
2026-04-26 00:35 35.43389 -82.54105 2144 ft 104 kts 340°
2026-04-26 00:36 35.43887 -82.54328 2159 ft 49 kts 339°
2026-04-26 00:36 35.44061 -82.54346 2158 ft 13 kts 18°
2026-04-26 00:36 35.44085 -82.54316 2158 ft 6 kts 73°
2026-04-26 00:36 35.44049 -82.54260 2158 ft 14 kts 154°
2026-04-26 00:37 35.43942 -82.54211 2159 ft 18 kts 159°
2026-04-26 00:37 35.43819 -82.54155 2159 ft 19 kts 160°
2026-04-26 00:37 35.43682 -82.54093 2155 ft 22 kts 160°
2026-04-26 00:37 35.43561 -82.54039 2150 ft 11 kts 160°
2026-04-26 00:38 35.43521 -82.53980 2147 ft 10 kts 99°
2026-04-26 00:38 35.43494 -82.53921 2146 ft 4 kts 110°
2026-04-26 00:38 35.43488 -82.53896 2146 ft 2 kts 103°
2026-04-26 00:38 35.43486 -82.53882 2145 ft 2 kts 101°
2026-04-26 00:39 35.43485 -82.53877 2145 ft 0 kts 101°